Retour au catalogue

STARLINK-5094

ActifCommunicationsVLEO
NORAD 53977·PAYLOAD·🇺🇸 United States

Lancé Oct 5, 2022 depuis Vandenberg Space Force Base

Loading…

Prochains Passages (prochaines 24 heures)

TLE

FraisSource: CelesTrak SupGP

Époque: Sep 15, 2026, 01:51 UTC

1 53977C 22125P   26258.07756944 -.00121060  00000+0 -34624-2 0  2588
2 53977  53.1572  76.8353 0001175  84.6430  30.5313 15.35469389    16

Suivez STARLINK-5094 en temps réel avec AllMySat

Download on the App Store